Change the Weather History Date:

Tuesday, September 17, 2013

  Actual Average Record
Temperature  
Mean Temperature 50 °F -  
Max Temperature 66 °F 67 °F 77 °F (2006)
Min Temperature 37 °F 47 °F 35 °F (2011)
Degree Days  
Heating Degree Days 14    
Moisture  
Dew Point 40 °F    
Average Humidity 69    
Maximum Humidity 93    
Minimum Humidity 42    
Precipitation  
Precipitation 0.00 in - - ()
Sea Level Pressure  
Sea Level Pressure 30.34 in    
Wind  
Wind Speed 2 mph (NW)    
Max Wind Speed 7 mph    
Max Gust Speed -    
Visibility 10 miles    
Events      
Averages and records for this station are not official NWS values.
T = Trace of Precipitation, MM = Missing Value Source: NWS Daily Summary

Daily Weather History Graph

Daily Weather History Graph

Search for Another Location

Airport or City:

Trip Planner

Search our weather history database for the weather conditions in past years. The results will help you decide how hot, cold, wet, or windy it might be!

Date:

Astronomy

Sep. 17, 2013 Rise Set
Actual Time 6:20 AM EDT 6:45 PM EDT
Civil Twilight 5:51 AM EDT 7:13 PM EDT
Nautical Twilight 5:17 AM EDT 7:47 PM EDT
Astronomical Twilight 4:42 AM EDT 8:22 PM EDT
Moon 5:31 PM EDT (9/17) 4:08 AM EDT (9/17)
Length of Visible Light 13h 22m
Length of Day
12h 24m
Waxing Gibbous, 96% of the Moon is Illuminated
Sep 17
Waxing Gibbous
Sep 19
Full
Sep 26
Last Quarter
Oct 4
New
Oct 11
First Quarter

Hourly Weather History & Observations

Time (EDT) Temp. Windchill Dew Point Humidity Pressure Visibility Wind Dir Wind Speed Gust Speed Precip Events Conditions
12:53 AM 44.1 °F - 34.0 °F 68% 30.29 in 10.0 mi Calm Calm - N/A   Clear
1:53 AM 42.1 °F - 35.1 °F 76% 30.31 in 10.0 mi Calm Calm - N/A   Clear
2:53 AM 42.1 °F 40.2 °F 35.1 °F 76% 30.31 in 10.0 mi WNW 3.5 mph - N/A   Clear
3:53 AM 41.0 °F - 35.1 °F 79% 30.32 in 10.0 mi Calm Calm - N/A   Clear
4:53 AM 39.9 °F - 35.1 °F 83% 30.33 in 10.0 mi Calm Calm - N/A   Clear
5:53 AM 37.0 °F - 35.1 °F 93% 30.35 in 10.0 mi Calm Calm - N/A   Clear
6:53 AM 41.0 °F 39.0 °F 36.0 °F 82% 30.37 in 10.0 mi NW 3.5 mph - N/A   Clear
7:53 AM 46.0 °F 44.8 °F 37.9 °F 73% 30.39 in 10.0 mi Variable 3.5 mph - N/A   Clear
8:53 AM 50.0 °F - 37.9 °F 63% 30.40 in 10.0 mi Variable 4.6 mph - N/A   Clear
9:53 AM 54.0 °F - 37.9 °F 55% 30.41 in 10.0 mi Variable 4.6 mph - N/A   Clear
10:53 AM 57.0 °F - 39.0 °F 51% 30.40 in 10.0 mi Variable 3.5 mph - N/A   Clear
11:53 AM 59.0 °F - 37.9 °F 46% 30.39 in 10.0 mi NNE 6.9 mph - N/A   Clear
12:53 PM 61.0 °F - 39.0 °F 44% 30.38 in 10.0 mi Variable 6.9 mph - N/A   Clear
1:53 PM 63.0 °F - 39.9 °F 43% 30.35 in 10.0 mi Variable 5.8 mph - N/A   Clear
2:53 PM 64.9 °F - 41.0 °F 42% 30.33 in 10.0 mi Calm Calm - N/A   Clear
3:53 PM 64.9 °F - 41.0 °F 42% 30.31 in 10.0 mi Variable 3.5 mph - N/A   Clear
4:53 PM 64.9 °F - 41.0 °F 42% 30.31 in 10.0 mi WNW 3.5 mph - N/A   Clear
5:53 PM 61.0 °F - 48.0 °F 62% 30.30 in 10.0 mi Calm Calm - N/A   Clear
6:53 PM 54.0 °F - 48.0 °F 80% 30.30 in 10.0 mi Calm Calm - N/A   Clear
7:53 PM 51.1 °F - 48.0 °F 89% 30.31 in 10.0 mi Calm Calm - N/A   Clear
8:53 PM 48.0 °F - 46.0 °F 93% 30.31 in 10.0 mi Calm Calm - N/A   Clear
9:53 PM 46.9 °F - 44.1 °F 90% 30.31 in 10.0 mi Calm Calm - N/A   Clear
10:53 PM 45.0 °F - 43.0 °F 93% 30.31 in 10.0 mi Calm Calm - N/A   Clear
11:53 PM 45.0 °F - 43.0 °F 93% 30.31 in 10.0 mi Calm Calm - N/A   Clear